User: anonymous   Login
Location: Eckley
(40.9930°N, 75.8630°W)
Time: 11:42:47
(UTC-04:00)
Language:

Cosmos 2221 Rocket - Orbit

View from above orbital plane
View from above orbital plane
View from above satellite
View from above satellite

Ground track
Ground track

The orbit data is extracted from the following two-line orbital elements,

1 22237U 92080B   15108.54644116  .00000468  00000-0  61478-4 0  9999
2 22237 082.5102 133.1198 0018191 270.6843 243.1482 14.78109601206630
Epoch (UTC): 18 April 2015 13:06:52
Eccentricity: 0.0018191
inclination: 82.5102°
perigee height: 622 km
apogee height: 648 km
right ascension of ascending node: 133.1198°
argument of perigee: 270.6843°
revolutions per day: 14.78109601
mean anomaly at epoch: 243.1482°
orbit number at epoch: 20663

The dashed part of the orbit path shows where the satellite is in the earth's shadow,  

DLR